Location: Newark
(11.2914°S, 14.4718°E)
Time: 15:24:08
(UTC+00:00)

Tiros 1 despin weight - All Passes

Search period start: 18 September 2019 00:00
Search period end: 28 September 2019 00:00
Orbit: 594 x 642 km, 48.2° (Epoch: 17 September)

Date Brightness Start Highest point End Pass type
(mag) Time Alt. Az. Time Alt. Az. Time Alt. Az.
18 Sep - 08:13:59 10° SW 08:18:41 82° SE 08:23:19 10° NE daylight
18 Sep - 20:28:33 10° N 20:31:44 19° NE 20:34:56 10° E night (unlit)
18 Sep - 22:09:03 10° WNW 22:13:04 32° SW 22:17:09 10° SSE night (unlit)
19 Sep - 06:50:17 10° S 06:53:40 19° SE 06:57:01 10° E daylight
19 Sep - 08:30:53 10° WSW 08:35:11 37° NW 08:39:27 10° NNE daylight
19 Sep - 20:43:52 10° NNW 20:48:11 52° NE 20:52:35 10° SE night (unlit)
19 Sep - 22:27:35 10° WSW 22:29:49 13° SW 22:32:04 10° SSW night (unlit)
20 Sep - 07:05:50 10° SSW 07:10:21 46° SE 07:14:49 10° ENE daylight
20 Sep - 08:49:09 10° W 08:51:40 14° NW 08:54:08 10° NNW daylight
20 Sep - 19:22:33 10° NE 19:23:29 11° NE 19:24:25 10° ENE night (unlit)
20 Sep - 21:00:22 10° NW 21:04:43 56° SW 21:09:10 10° SSE night (unlit)
21 Sep - 05:43:27 10° SSE 05:45:11 12° SE 05:46:55 10° ESE daylight
21 Sep - 07:22:14 10° SW 07:26:55 66° NW 07:31:31 10° NNE daylight
21 Sep - 19:36:08 10° N 19:39:57 29° NE 19:43:49 10° ESE night (unlit)
21 Sep - 21:17:55 10° W 21:21:23 22° SW 21:24:54 10° S night (unlit)
22 Sep - 05:57:56 10° SSW 06:01:58 28° SE 06:05:58 10° ENE daylight
22 Sep - 07:39:34 10° WSW 07:43:24 25° NW 07:47:11 10° N daylight
22 Sep - 19:52:01 10° NW 19:56:26 81° NE 20:00:56 10° SE night (unlit)
23 Sep - 06:13:54 10° SW 06:18:36 71° SE 06:23:15 10° NE daylight
23 Sep - 18:28:56 10° NNE 18:31:42 16° NE 18:34:30 10° E visible
23 Sep - 20:08:55 10° WNW 20:13:01 36° SW 20:17:10 10° SSE night (unlit)
24 Sep - 04:50:28 10° S 04:53:33 17° SE 04:56:37 10° E daylight
24 Sep - 06:30:40 10° WSW 06:35:07 43° NW 06:39:32 10° NNE daylight
24 Sep - 18:43:59 10° NNW 18:48:10 44° NE 18:52:25 10° ESE visible
24 Sep - 20:27:08 10° W 20:29:44 15° SW 20:32:22 10° S night (unlit)
25 Sep - 05:05:49 10° SSW 05:10:15 40° SE 05:14:39 10° ENE daylight
25 Sep - 06:48:36 10° W 06:51:36 17° NW 06:54:34 10° NNW daylight
25 Sep - 19:00:19 10° NW 19:04:41 65° SW 19:09:09 10° SSE visible
26 Sep - 03:44:25 10° SE 03:45:03 10° SE 03:45:41 10° SE visible
26 Sep - 05:22:07 10° SW 05:26:49 77° NW 05:31:29 10° NE daylight
26 Sep - 17:36:21 10° N 17:39:56 24° NE 17:43:33 10° ESE visible
26 Sep - 19:17:41 10° WNW 19:21:19 25° SW 19:25:00 10° S visible
27 Sep - 03:58:02 10° S 04:01:51 24° SE 04:05:40 10° E visible
27 Sep - 05:39:16 10° WSW 05:43:19 29° NW 05:47:19 10° N daylight
27 Sep - 17:52:03 10° NNW 17:56:25 69° NE 18:00:50 10° SE visible
27 Sep - 19:37:41 10° SW 19:38:07 10° SW 19:38:33 10° SW visible
